Tiempo atmosférico en la estación meteorológica de Arucas, Las Palmas (86 m.)



Fecha
DESCASC
Temp. máxima en grados centígrados (hora)
DESCASC
Temp. mínima en grados centígrados (hora)
DESCASC
Temp. media en grados centígrados
DESCASC
Racha de viento máxima en m/sg (hora)
DESCASC
Velocidad máxima media en intervalos de 10 minutos(hora)
DESCASC
Precipitaciones diarias en mm
DESCASC
Precipitaciones de 00:00 a 06:00 en mm
DESCASC
Precipitaciones de 06:00 a 12:00 en mm
DESCASC
Precipitaciones de 12:00 a 18:00 en mm
DESCASC
Precipitaciones de 18:00 a 24:00 en mm
DESCASC
03-12-2020 22.1 (12:10) 16.5 (21:50) 19.3 5 (12:30) 3.33 (07:00) 0 0 0 0 0
02-12-2020 22.3 (13:10) 17 (06:40) 19.6 5.83 (15:00) 3.33 (23:30) 0 0 0 0 0
01-12-2020 22.7 (13:20) 14.9 (06:40) 18.8 5.56 (15:30) 3.33 (15:30) 0 0 0 0 0
30-11-2020 21.8 (12:40) 15.1 (00:00) 18.4 6.39 (23:30) 3.61 (23:30) 0 0 0 0 0
29-11-2020 19.2 (15:40) 14 (00:00) 16.6 8.06 (05:40) 3.61 (05:50) 15 12 2.6 0.4 0
28-11-2020 20.8 (15:30) 16.4 (00:00) 18.6 10.28 (01:20) 5.83 (01:20) 3.8 0.4 3.2 0.2 0
27-11-2020 20.5 (13:50) 16.5 (00:00) 18.5 15.28 (07:30) 8.06 (07:30) 0 0 0 0 0
26-11-2020 19.4 (15:20) 15.7 (00:00) 17.5 14.72 (17:50) 8.89 (20:10) 0.6 0 0 0.4 0.2
25-11-2020 22.6 (12:10) 16.2 (00:00) 19.4 12.22 (18:10) 7.5 (18:10) 0 0 0 0 0
24-11-2020 24.9 (12:00) 16.2 (00:00) 20.6 7.5 (07:10) 5.28 (07:00) 0 0 0 0 0
23-11-2020 26.4 (12:30) 17.2 (00:00) 21.8 10 (11:50) 6.11 (11:50) 0 0 0 0 0
22-11-2020 25.7 (14:50) 19.3 (00:00) 22.5 8.61 (13:40) 5.56 (14:10) 0 0 0 0 0
21-11-2020 26.9 (13:20) 20.5 (00:00) 23.7 11.39 (11:40) 6.67 (10:20) 0 0 0 0 0
20-11-2020 27.3 (15:00) 18.7 (00:00) 23 12.5 (11:20) 7.22 (11:20) 0 0 0 0 0
19-11-2020 23.2 (11:10) 20 (00:00) 21.6 6.11 (13:40) 3.61 (13:40) 0 0 0 0 0
18-11-2020 26.4 (12:40) 19 (00:00) 22.7 5.83 (14:40) 3.33 (14:30) 0 0 0 0 0
17-11-2020 28.9 (13:30) 19 (00:00) 23.9 5.56 (15:30) 4.17 (03:50) 0 0 0 0 0
16-11-2020 24.5 (11:10) 18.7 (00:00) 21.6 6.39 (07:30) 4.17 (07:30) 0 0 0 0 0
15-11-2020 24.3 (13:20) 18.6 (00:00) 21.4 4.72 (10:30) 3.06 (06:50) 0 0 0 0 0
14-11-2020 27.9 (15:30) 20.4 (00:00) 24.1 6.67 (10:00) 3.33 (14:50) 0 0 0 0 0
13-11-2020 26.1 (16:10) 19.7 (00:00) 22.9 10.83 (16:10) 6.39 (16:00) 0 0 0 0 0
12-11-2020 23.2 (13:40) 19.1 (00:00) 21.2 6.39 (23:59) 3.89 (23:59) 0 0 0 0 0
11-11-2020 22.2 (13:50) 18.9 (00:00) 20.6 4.44 (13:20) 2.78 (12:20) 0 0 0 0 0
10-11-2020 22.6 (13:10) 19.1 (00:00) 20.9 8.33 (11:00) 5 (10:10) 0.2 0 0.2 0 0
09-11-2020 23.2 (14:20) 16.7 (00:00) 20 6.11 (20:50) 3.61 (21:50) 0 0 0 0 0
08-11-2020 22.1 (12:10) 15.9 (00:00) 19 4.44 (13:50) 2.5 (13:50) 0 0 0 0 0
07-11-2020 23.6 (11:30) 18.5 (00:00) 21.1 7.5 (13:00) 3.89 (10:50) 0 0 0 0 0
06-11-2020 25.7 (13:40) 16.7 (00:00) 21.2 10.28 (14:00) 5.83 (14:00) 0 0 0 0 0
05-11-2020 22.3 (14:00) 17.4 (00:00) 19.8 7.22 (15:00) 3.89 (13:50) 0.2 0 0.2 0 0

Gráficas

Temp. máximas Temp. mínimas Temp. medias Precipitaciones Rachas de viento máximas Velocidades máximas media en intervalos de 10 minutos

Datos horarios

Fecha y hora oficial Temperatura (ºC) Velocidad del viento (km/h) Dirección del viento Racha (km/h) Dirección de racha Precipitación (mm) Presión (hPa) Tendencia (hPa) Humedad (%)
2020-12-04 23:00:00 18.7 11 Noroeste 21 Noroeste 0 -- -- 73
2020-12-04 22:00:00 18 7 Sudoeste 11 Sudoeste 0 -- -- 77
2020-12-04 21:00:00 19.1 4 Noroeste 21 Norte 0 -- -- 72
2020-12-04 20:00:00 19.1 11 Norte 22 Norte 0 -- -- 73
2020-12-04 19:00:00 19.1 9 Norte 24 Norte 0 -- -- 81
2020-12-04 18:00:00 19 13 Norte 30 Norte 0 -- -- 83
2020-12-04 17:00:00 19.3 6 Oeste 17 Noroeste 0 -- -- 82
2020-12-04 16:00:00 21.2 6 Noroeste 12 Noroeste 0 -- -- 71
2020-12-04 15:00:00 21.3 7 Norte 15 Norte 0 -- -- 72
2020-12-04 14:00:00 20.8 8 Norte 13 Norte 0 -- -- 72
2020-12-04 13:00:00 20.6 8 Norte 13 Norte 0 -- -- 75
2020-12-04 12:00:00 20.6 4 Norte 12 Nordeste 0 -- -- 73
2020-12-04 11:00:00 20.7 7 Nordeste 18 Nordeste 0 -- -- 79
2020-12-04 10:00:00 20.6 4 Nordeste 8 Sudeste 0 -- -- 76
2020-12-04 09:00:00 19.5 4 Sur 9 Sur 0 -- -- 79
2020-12-04 08:00:00 17.8 6 Sur 12 Sur 0 -- -- 83
2020-12-04 07:00:00 17.2 7 Sur 10 Sur 0 -- -- 81
2020-12-04 06:00:00 17.2 7 Sur 12 Sur 0 -- -- 79
2020-12-04 05:00:00 16.3 6 Sudeste 14 Sur 0 -- -- 77
2020-12-04 04:00:00 17.5 8 Sur 13 Sur 0 -- -- 75
2020-12-04 03:00:00 17.9 9 Sur 17 Sur 0 -- -- 67
2020-12-04 02:00:00 18.2 9 Sur 13 Sur 0 -- -- 74
2020-12-04 01:00:00 18.5 8 Sur 12 Sur 0 -- -- 73
2020-12-04 00:00:00 18.8 8 Sur 13 Sur 0 -- -- 80
2020-12-03 23:00:00 18.4 8 Sur 12 Sur 0 -- -- 77
2020-12-03 22:00:00 16.6 3 Sur 8 Sudoeste 0 -- -- 86
2020-12-03 21:00:00 17.3 6 Sudoeste 9 Sudoeste 0 -- -- 79
2020-12-03 20:00:00 18.3 6 Sur 9 Sur 0 -- -- 80
2020-12-03 19:00:00 18.9 4 Sur 13 Sur 0 -- -- 82
2020-12-03 18:00:00 19.5 4 Sudeste 11 Este 0 -- -- 80
2020-12-03 17:00:00 20.5 8 Este 13 Nordeste 0 -- -- 76
2020-12-03 16:00:00 21.2 7 Nordeste 13 Este 0 -- -- 73
2020-12-03 15:00:00 21 7 Nordeste 15 Nordeste 0 -- -- 71
2020-12-03 14:00:00 21.5 8 Nordeste 14 Nordeste 0 -- -- 71
2020-12-03 13:00:00 21.8 9 Nordeste 18 Nordeste 0 -- -- 71
2020-12-03 12:00:00 21.8 10 Nordeste 16 Nordeste 0 -- -- 68
2020-12-03 11:00:00 21.8 9 Este 15 Este 0 -- -- 70
2020-12-03 10:00:00 21 7 Sudeste 16 Sudeste 0 -- -- 65
2020-12-03 09:00:00 19.7 10 Sur 15 Sur 0 -- -- 58
2020-12-03 08:00:00 18.2 10 Sur 17 Sur 0 -- -- 70
2020-12-03 07:00:00 18 12 Sur 17 Sur 0 -- -- 73
2020-12-03 06:00:00 17.3 6 Sur 12 Sur 0 -- -- 80
2020-12-03 05:00:00 17.6 9 Sur 14 Sur 0 -- -- 77
2020-12-03 04:00:00 16.8 6 Sur 10 Sur 0 -- -- 78
2020-12-03 03:00:00 17.2 5 Sur 11 Sur 0 -- -- 77
2020-12-03 02:00:00 17.5 8 Sur 11 Sur 0 -- -- 81
2020-12-03 01:00:00 17.8 5 Sur 13 Sur 0 -- -- 81
2020-12-03 00:00:00 18.3 8 Sur 18 Sur 0 -- -- 79
2020-12-02 23:00:00 18.4 9 Sur 17 Sur 0 -- -- 79
2020-12-02 22:00:00 18.4 9 Sur 14 Sur 0 -- -- 80
2020-12-02 21:00:00 18.2 8 Sur 14 Sur 0 -- -- 83
2020-12-02 20:00:00 18.2 4 Sur 8 Sudeste 0 -- -- 83
2020-12-02 19:00:00 19.1 3 Sudeste 6 Nordeste 0 -- -- 81
2020-12-02 18:00:00 19.6 3 Nordeste 10 Nordeste 0 -- -- 78
2020-12-02 17:00:00 20.7 5 Nordeste 10 Nordeste 0 -- -- 75
2020-12-02 16:00:00 21.4 6 Nordeste 13 Nordeste 0 -- -- 72
2020-12-02 15:00:00 21 11 Este 21 Este 0 -- -- 70
2020-12-02 14:00:00 21.3 8 Nordeste 15 Nordeste 0 -- -- 73
2020-12-02 13:00:00 22.1 6 Nordeste 12 Nordeste 0 -- -- 68
2020-12-02 12:00:00 21.8 5 Nordeste 10 Nordeste 0 -- -- 65
2020-12-02 11:00:00 21.7 5 Nordeste 9 Nordeste 0 -- -- 67
2020-12-02 10:00:00 21.3 8 Oeste 16 Oeste 0 -- -- 68
2020-12-02 09:00:00 19.7 4 Sur 10 Sudoeste 0 -- -- 70
2020-12-02 08:00:00 17.5 3 Sur 11 Sur 0 -- -- 75
2020-12-02 07:00:00 17.5 6 Sudeste 13 Sudoeste 0 -- -- 72
2020-12-02 06:00:00 18.5 8 Sur 15 Sur 0 -- -- 68
2020-12-02 05:00:00 19.1 10 Sur 17 Sur 0 -- -- 66
2020-12-02 04:00:00 18.2 4 Sur 12 Sur 0 -- -- 70
2020-12-02 03:00:00 17.7 4 Sudoeste 9 Sudoeste 0 -- -- 76
2020-12-02 02:00:00 18.5 6 Sudoeste 12 Sudoeste 0 -- -- 73
2020-12-02 01:00:00 18.7 4 Sur 14 Sur 0 -- -- 73
2020-12-02 00:00:00 18 10 Sur 15 Sur 0 -- -- 77
2020-12-01 23:00:00 18 5 Sur 10 Sur 0 -- -- 77
2020-12-01 22:00:00 18.8 6 Sur 12 Sur 0 -- -- 75
2020-12-01 21:00:00 18.7 7 Sur 14 Sudeste 0 -- -- 77
2020-12-01 20:00:00 18.9 8 Sur 12 Sur 0 -- -- 74
2020-12-01 19:00:00 19.5 8 Sudeste 11 Sur 0 -- -- 72
2020-12-01 18:00:00 20 5 Sudeste 11 Oeste 0 -- -- 71
2020-12-01 17:00:00 21 5 Noroeste 11 Noroeste 0 -- -- 68
2020-12-01 16:00:00 20.7 8 Oeste 20 Oeste 0 -- -- 71
2020-12-01 15:00:00 21 8 Oeste 17 Oeste 0 -- -- 74
2020-12-01 14:00:00 21.4 4 Norte 14 Norte 0 -- -- 69
2020-12-01 13:00:00 22.3 8 Norte 12 Norte 0 -- -- 66
2020-12-01 12:00:00 21.8 6 Nordeste 10 Este 0 -- -- 67
2020-12-01 11:00:00 21.8 5 Nordeste 8 Norte 0 -- -- 61
2020-12-01 10:00:00 21.9 3 Este 6 Norte 0 -- -- 60
2020-12-01 09:00:00 19.8 0 Calma 10 Sur 0 -- -- 70
2020-12-01 08:00:00 18.1 9 Sur 20 Sur 0 -- -- 69
2020-12-01 07:00:00 15.6 6 Sur 10 Sur 0 -- -- 83
2020-12-01 06:00:00 15.7 0 Calma 10 Sur 0 -- -- 78
2020-12-01 05:00:00 17.4 6 Sur 13 Sur 0 -- -- 72
2020-12-01 04:00:00 17.8 10 Sur 17 Sur 0 -- -- 68
2020-12-01 03:00:00 17.7 10 Sur 19 Sur 0 -- -- 67
2020-12-01 02:00:00 17 10 Sudeste 20 Sudeste 0 -- -- 70
2020-12-01 01:00:00 16.5 5 Sudeste 12 Sudeste 0 -- -- 73
2020-12-01 00:00:00 17.2 5 Sur 23 Sur 0 -- -- 71
2020-11-30 23:00:00 18.5 6 Sur 16 Sur 0 -- -- 66
2020-11-30 22:00:00 19 7 Sudoeste 18 Sur 0 -- -- 64
2020-11-30 21:00:00 17.3 3 Sur 13 Sur 0 -- -- 73
2020-11-30 20:00:00 18 8 Sur 13 Sur 0 -- -- 72
2020-11-30 19:00:00 18.5 4 Sur 14 Sur 0 -- -- 71
2020-11-30 18:00:00 19.6 6 Sudoeste 10 Sudoeste 0 -- -- 69
2020-11-30 17:00:00 21.6 2 Sudeste 10 Este 0 -- -- 59
2020-11-30 16:00:00 21.2 4 Norte 13 Nordeste 0 -- -- 64
2020-11-30 15:00:00 21.5 8 Nordeste 17 Nordeste 0 -- -- 62
2020-11-30 14:00:00 21.8 8 Nordeste 13 Nordeste 0 -- -- 61
2020-11-30 13:00:00 21.8 9 Nordeste 15 Nordeste 0 -- -- 63
2020-11-30 12:00:00 21.4 10 Este 16 Este 0 -- -- 60
2020-11-30 11:00:00 20.4 3 Sudeste 16 Sudeste 0 -- -- 64
2020-11-30 10:00:00 19.3 8 Sur 15 Sur 0 -- -- 66
2020-11-30 09:00:00 18.2 9 Sur 18 Sur 0 -- -- 67
2020-11-30 08:00:00 15.9 4 Oeste 12 Sudoeste 0 -- -- 75
2020-11-30 07:00:00 16.5 6 Sur 15 Sur 0 -- -- 72
2020-11-30 06:00:00 16.7 7 Sur 15 Sudoeste 0 -- -- 66
2020-11-30 05:00:00 16 8 Sudoeste 19 Oeste 0 -- -- 70
2020-11-30 04:00:00 17 10 Oeste 22 Oeste 0 -- -- 63
2020-11-30 03:00:00 16.1 7 Sudoeste 19 Oeste 0 -- -- 66
2020-11-30 02:00:00 16.4 8 Sudoeste 15 Sudoeste 0 -- -- 67
2020-11-30 01:00:00 16.4 9 Sudoeste 18 Oeste 0 -- -- 68
2020-11-30 00:00:00 15.1 8 Sudoeste 13 Oeste 0 -- -- 86
2020-11-29 23:00:00 14.7 3 Sudoeste 17 Sur 0 -- -- 84
2020-11-29 22:00:00 15.1 8 Sur 13 Sur 0 -- -- 84
2020-11-29 21:00:00 14.9 5 Sudoeste 9 Sudoeste 0 -- -- 85
2020-11-29 20:00:00 15.1 3 Sudeste 9 Sur 0 -- -- 87
2020-11-29 19:00:00 16.1 4 Sur 8 Sur 0 -- -- 86
2020-11-29 18:00:00 17 4 Sur 10 Este 0 -- -- 84
2020-11-29 17:00:00 18.5 7 Sudeste 12 Sudeste 0 -- -- 76
2020-11-29 16:00:00 18.9 5 Sudeste 9 Sudeste 0 -- -- 72
2020-11-29 15:00:00 18.6 5 Sudeste 10 Sudeste 0.2 -- -- 76
2020-11-29 14:00:00 18.2 3 Este 7 Este 0.2 -- -- 78
2020-11-29 13:00:00 18.2 3 Nordeste 10 Sudoeste 0 -- -- 75
2020-11-29 12:00:00 17.1 6 Sudoeste 14 Sudoeste 0 -- -- 84
2020-11-29 11:00:00 16 6 Noroeste 23 Norte 0.2 -- -- 91
2020-11-29 10:00:00 17.1 4 Sur 11 Sudoeste 0 -- -- 87
2020-11-29 09:00:00 16.1 6 Sur 15 Sur 0.2 -- -- 93
2020-11-29 08:00:00 15.7 9 Sudoeste 16 Sudoeste 1.2 -- -- 93
2020-11-29 07:00:00 16.4 6 Norte 23 Norte 1 -- -- 92
2020-11-29 06:00:00 16.3 11 Norte 29 Norte 9.8 -- -- 93
2020-11-29 05:00:00 17.1 12 Norte 23 Nordeste 2.2 -- -- 91
2020-11-29 04:00:00 15.1 5 Oeste 9 Oeste 0 -- -- 86
2020-11-29 03:00:00 15.4 3 Sudoeste 6 Sur 0 -- -- 87
2020-11-29 02:00:00 16.8 4 Sur 10 Sur 0 -- -- 83
2020-11-29 01:00:00 17 5 Sur 11 Sur 0 -- -- 82
2020-11-29 00:00:00 17.4 8 Sur 15 Sur 0 -- -- 80
2020-11-28 23:00:00 17.4 6 Sur 13 Sur 0 -- -- 78
2020-11-28 22:00:00 17.3 6 Sur 13 Sur 0 -- -- 79
2020-11-28 21:00:00 17.3 10 Sur 14 Sur 0 -- -- 82
2020-11-28 20:00:00 17.6 6 Sudoeste 12 Sudoeste 0 -- -- 82
2020-11-28 19:00:00 18.3 7 Sudoeste 16 Noroeste 0 -- -- 79
2020-11-28 18:00:00 19.1 10 Noroeste 23 Noroeste 0 -- -- 78
2020-11-28 17:00:00 19.1 11 Noroeste 21 Noroeste 0 -- -- 82
2020-11-28 16:00:00 20.8 8 Noroeste 21 Noroeste 0 -- -- 74
2020-11-28 15:00:00 20.2 9 Noroeste 14 Noroeste 0.2 -- -- 77
2020-11-28 14:00:00 20.1 8 Noroeste 24 Noroeste 0 -- -- 79
2020-11-28 13:00:00 18.8 11 Sudoeste 24 Noroeste 0 -- -- 86
2020-11-28 12:00:00 19.4 15 Noroeste 23 Oeste 0 -- -- 82
2020-11-28 11:00:00 19.1 14 Oeste 22 Oeste 0.2 -- -- 84
2020-11-28 10:00:00 17.7 11 Sudoeste 24 Sudoeste 0.6 -- -- 86
2020-11-28 09:00:00 17.1 11 Oeste 19 Sudoeste 1.2 -- -- 90
2020-11-28 08:00:00 16.7 10 Sudoeste 21 Oeste 1 -- -- 88
2020-11-28 07:00:00 16.9 11 Sudoeste 20 Sudoeste 0.2 -- -- 85
2020-11-28 06:00:00 17.1 11 Sudoeste 20 Sudoeste 0 -- -- 83
2020-11-28 05:00:00 16.6 13 Sudoeste 23 Sudoeste 0 -- -- 84
2020-11-28 04:00:00 17.2 12 Oeste 26 Oeste 0.2 -- -- 87
2020-11-28 03:00:00 17.1 10 Oeste 23 Oeste 0 -- -- 86
2020-11-28 02:00:00 17.1 12 Sudoeste 37 Noroeste 0.2 -- -- 84
2020-11-28 01:00:00 17.4 8 Oeste 33 Oeste 0 -- -- 84
2020-11-28 00:00:00 19 13 Noroeste 31 Noroeste 0 -- -- 70
2020-11-27 23:00:00 19.1 17 Noroeste 32 Oeste 0 -- -- 73
2020-11-27 22:00:00 19 15 Noroeste 35 Noroeste 0 -- -- 74
2020-11-27 21:00:00 19 20 Noroeste 41 Noroeste 0 -- -- 67
2020-11-27 20:00:00 18.7 21 Noroeste 39 Noroeste 0 -- -- 76
2020-11-27 19:00:00 18.8 22 Noroeste 43 Oeste 0 -- -- 73
2020-11-27 18:00:00 18.7 24 Noroeste 45 Oeste 0 -- -- 71
2020-11-27 17:00:00 19.5 23 Noroeste 50 Oeste 0 -- -- 63
2020-11-27 16:00:00 19.1 25 Noroeste 41 Noroeste 0 -- -- 70
2020-11-27 15:00:00 20.3 23 Noroeste 40 Noroeste 0 -- -- 63
2020-11-27 14:00:00 19.4 26 Noroeste 41 Noroeste 0 -- -- 71
2020-11-27 13:00:00 20.1 23 Oeste 36 Oeste 0 -- -- 62
2020-11-27 12:00:00 19.1 19 Oeste 39 Oeste 0 -- -- 65
2020-11-27 11:00:00 17.3 15 Oeste 45 Noroeste 0 -- -- 71
2020-11-27 10:00:00 18.5 15 Oeste 41 Noroeste 0 -- -- 67
2020-11-27 09:00:00 18.5 19 Noroeste 40 Oeste 0 -- -- 62
2020-11-27 08:00:00 17.2 18 Noroeste 55 Noroeste 0 -- -- 65
2020-11-27 07:00:00 17.6 23 Noroeste 40 Noroeste 0 -- -- 58
2020-11-27 06:00:00 17 21 Noroeste 47 Noroeste 0 -- -- 68
2020-11-27 05:00:00 17.6 20 Noroeste 41 Noroeste 0 -- -- 63
2020-11-27 04:00:00 17.4 22 Noroeste 35 Noroeste 0 -- -- 66
2020-11-27 03:00:00 17.8 19 Noroeste 38 Noroeste 0 -- -- 61
2020-11-27 02:00:00 17.8 22 Noroeste 41 Noroeste 0 -- -- 64
2020-11-27 01:00:00 17.5 23 Noroeste 42 Noroeste 0 -- -- 65
2020-11-27 00:00:00 17.2 22 Noroeste 40 Oeste 0 -- -- 70
2020-11-26 23:00:00 17 26 Noroeste 41 Noroeste 0 -- -- 71
2020-11-26 22:00:00 17.2 21 Noroeste 47 Noroeste 0 -- -- 73
2020-11-26 21:00:00 17.5 30 Noroeste 50 Oeste 0 -- -- 70
2020-11-26 20:00:00 17.9 30 Noroeste 50 Noroeste 0.2 -- -- 68
2020-11-26 19:00:00 18.4 27 Noroeste 48 Noroeste 0 -- -- 63
2020-11-26 18:00:00 18.4 25 Noroeste 53 Noroeste 0 -- -- 66
2020-11-26 17:00:00 17.5 26 Noroeste 50 Oeste 0 -- -- 73
2020-11-26 16:00:00 17 23 Noroeste 48 Noroeste 0.4 -- -- 83
2020-11-26 15:00:00 17.5 25 Noroeste 42 Noroeste 0 -- -- 79
2020-11-26 14:00:00 17.1 26 Noroeste 50 Oeste 0 -- -- 78
2020-11-26 13:00:00 18.2 26 Noroeste 44 Oeste 0 -- -- 73
2020-11-26 12:00:00 19 23 Noroeste 49 Oeste 0 -- -- 67
2020-11-26 11:00:00 18.1 22 Noroeste 40 Noroeste 0 -- -- 73
2020-11-26 10:00:00 18.1 23 Noroeste 46 Noroeste 0 -- -- 67
2020-11-26 09:00:00 16.2 23 Noroeste 50 Noroeste 0 -- -- 77
2020-11-26 08:00:00 17.1 27 Noroeste 50 Noroeste 0 -- -- 72
2020-11-26 07:00:00 17.3 23 Noroeste 39 Noroeste 0 -- -- 73
2020-11-26 06:00:00 17.4 19 Noroeste 41 Noroeste 0 -- -- 66
2020-11-26 05:00:00 17.2 20 Noroeste 42 Oeste 0 -- -- 66
2020-11-26 04:00:00 17.1 24 Noroeste 50 Norte 0 -- -- 72
2020-11-26 03:00:00 17.6 15 Noroeste 37 Noroeste 0 -- -- 70
2020-11-26 02:00:00 17.7 15 Noroeste 37 Noroeste 0 -- -- 67
2020-11-26 01:00:00 18.1 20 Noroeste 40 Noroeste 0 -- -- 68
2020-11-26 00:00:00 18.6 19 Noroeste 37 Noroeste 0 -- -- 70
2020-11-25 23:00:00 18.9 21 Noroeste 41 Noroeste 0 -- -- 64
2020-11-25 22:00:00 19 24 Noroeste 43 Noroeste 0 -- -- 69
2020-11-25 21:00:00 19.1 20 Noroeste 41 Noroeste 0 -- -- 72
2020-11-25 20:00:00 18.4 15 Noroeste 35 Noroeste 0 -- -- 80
2020-11-25 19:00:00 18.9 25 Noroeste 44 Noroeste 0 -- -- 84
2020-11-25 18:00:00 19.5 23 Noroeste 42 Noroeste 0 -- -- 80
2020-11-25 17:00:00 21 13 Noroeste 24 Noroeste 0 -- -- 69
2020-11-25 16:00:00 21.8 14 Noroeste 24 Noroeste 0 -- -- 66
2020-11-25 15:00:00 22.6 12 Noroeste 22 Noroeste 0 -- -- 64
2020-11-25 14:00:00 22.2 11 Noroeste 23 Norte 0 -- -- 67
2020-11-25 13:00:00 22.2 13 Noroeste 22 Noroeste 0 -- -- 70
2020-11-25 12:00:00 22.2 13 Noroeste 20 Noroeste 0 -- -- 69
2020-11-25 11:00:00 22.1 6 Norte 14 Norte 0 -- -- 73
2020-11-25 10:00:00 21.3 10 Norte 32 Noroeste 0 -- -- 76
2020-11-25 09:00:00 20.8 17 Noroeste 28 Noroeste 0 -- -- 76
2020-11-25 08:00:00 19.7 11 Oeste 23 Oeste 0 -- -- 81
2020-11-25 07:00:00 18.6 9 Sudoeste 14 Oeste 0 -- -- 82
2020-11-25 06:00:00 18.5 8 Sudoeste 14 Sudoeste 0 -- -- 76
2020-11-25 05:00:00 18.2 8 Sudoeste 13 Sudoeste 0 -- -- 69
2020-11-25 04:00:00 18.2 8 Sudoeste 12 Sudoeste 0 -- -- 62
2020-11-25 03:00:00 18.2 8 Sudoeste 14 Sudoeste 0 -- -- 54
2020-11-25 02:00:00 17.6 8 Sudoeste 11 Sudoeste 0 -- -- 55
2020-11-25 01:00:00 17.3 5 Sudoeste 10 Sudoeste 0 -- -- 57
2020-11-25 00:00:00 16.2 2 Sudoeste 6 Sudoeste 0 -- -- 61
2020-11-24 23:00:00 16.8 3 Sudeste 5 Sudeste 0 -- -- 53
2020-11-24 22:00:00 18.8 3 Sudeste 11 Sudoeste 0 -- -- 59
2020-11-24 21:00:00 18.5 2 Sudoeste 3 Sudoeste 0 -- -- 70
2020-11-24 20:00:00 19.6 0 Calma 4 Sudeste 0 -- -- 68
2020-11-24 19:00:00 20.5 3 Sudoeste 9 Sudeste 0 -- -- 63
2020-11-24 18:00:00 22 5 Sudoeste 11 Sudeste 0 -- -- 58
2020-11-24 17:00:00 22.6 4 Este 13 Sudeste 0 -- -- 57
2020-11-24 16:00:00 23.2 6 Oeste 18 Oeste 0 -- -- 53
2020-11-24 15:00:00 24.1 7 Noroeste 13 Noroeste 0 -- -- 53
2020-11-24 14:00:00 24.4 6 Noroeste 20 Oeste 0 -- -- 49
2020-11-24 13:00:00 24.4 8 Nordeste 15 Nordeste 0 -- -- 55
2020-11-24 12:00:00 24.9 8 Norte 15 Sudeste 0 -- -- 47
2020-11-24 11:00:00 23.3 9 Este 21 Este 0 -- -- 49
2020-11-24 10:00:00 22.5 12 Sudeste 24 Sudeste 0 -- -- 57
2020-11-24 09:00:00 20.9 14 Sudeste 23 Sudeste 0 -- -- 64
2020-11-24 08:00:00 20.4 16 Sur 27 Sur 0 -- -- 60
2020-11-24 07:00:00 20.3 19 Sur 26 Sur 0 -- -- 55
2020-11-24 06:00:00 19.7 13 Sudeste 22 Sudeste 0 -- -- 57
2020-11-24 05:00:00 19.5 9 Sudeste 13 Sudeste 0 -- -- 49
2020-11-24 04:00:00 20.2 9 Sudeste 16 Sudeste 0 -- -- 42
2020-11-24 03:00:00 20.3 10 Sudeste 19 Sudeste 0 -- -- 37
2020-11-24 02:00:00 20 10 Sudeste 21 Sur 0 -- -- 37
2020-11-24 01:00:00 20.3 15 Sur 21 Sudeste 0 -- -- 36
2020-11-24 00:00:00 20 12 Sur 19 Sur 0 -- -- 70
2020-11-23 23:00:00 18.8 6 Sudeste 10 Sudeste 0 -- -- 52
2020-11-23 22:00:00 17.4 4 Sudeste 5 Sudeste 0 -- -- 64
2020-11-23 21:00:00 17.6 0 Calma 6 Sur 0 -- -- 62
2020-11-23 20:00:00 18.4 0 Calma 5 Sudeste 0 -- -- 67
2020-11-23 19:00:00 19.6 2 Sudoeste 6 Sudoeste 0 -- -- 63
2020-11-23 18:00:00 21.3 4 Sudoeste 6 Sudoeste 0 -- -- 56
2020-11-23 17:00:00 24.2 4 Nordeste 12 Oeste 0 -- -- 54
2020-11-23 16:00:00 24.4 5 Sudoeste 19 Este 0 -- -- 51
2020-11-23 15:00:00 24.2 8 Sudeste 26 Sudeste 0 -- -- 55
2020-11-23 14:00:00 24.2 13 Sudeste 30 Este 0 -- -- 54
2020-11-23 13:00:00 24.2 21 Este 33 Este 0 -- -- 53
2020-11-23 12:00:00 25.6 21 Sudeste 36 Sudeste 0 -- -- 36
2020-11-23 11:00:00 24.6 16 Este 31 Este 0 -- -- 49
2020-11-23 10:00:00 22.3 15 Este 28 Sudeste 0 -- -- 69
2020-11-23 09:00:00 21.1 20 Sudeste 30 Sudeste 0 -- -- 74
2020-11-23 08:00:00 20 15 Sudeste 26 Sudeste 0 -- -- 71
2020-11-23 07:00:00 19.7 15 Sudeste 22 Sudeste 0 -- -- 58
2020-11-23 06:00:00 18.6 9 Sudeste 17 Sudeste 0 -- -- 76
2020-11-23 05:00:00 19 10 Sudeste 15 Sur 0 -- -- 71
2020-11-23 04:00:00 18.9 8 Sudeste 16 Este 0 -- -- 70
2020-11-23 03:00:00 19.8 8 Sudeste 17 Sudeste 0 -- -- 57
2020-11-23 02:00:00 20.1 11 Sudeste 18 Sudeste 0 -- -- 46
2020-11-23 01:00:00 20 11 Sur 17 Sur 0 -- -- 73
2020-11-23 00:00:00 19.7 7 Sudeste 12 Sudeste 0 -- -- 66
2020-11-22 23:00:00 20 7 Sudeste 10 Sudeste 0 -- -- 71
2020-11-22 22:00:00 19.7 7 Sudeste 12 Sudeste 0 -- -- 70
2020-11-22 21:00:00 19.8 5 Sudeste 16 Este 0 -- -- 70
2020-11-22 20:00:00 20.7 12 Sudeste 22 Este 0 -- -- 71
2020-11-22 19:00:00 20.6 10 Sudeste 19 Sudeste 0 -- -- 62
2020-11-22 18:00:00 21.5 11 Sudeste 22 Este 0 -- -- 62
2020-11-22 17:00:00 22.2 16 Este 28 Sudeste 0 -- -- 66
2020-11-22 16:00:00 24.9 13 Sudeste 26 Este 0 -- -- 52
2020-11-22 15:00:00 25.5 15 Este 29 Este 0 -- -- 53
2020-11-22 14:00:00 25.2 15 Sudeste 31 Sudeste 0 -- -- 53
2020-11-22 13:00:00 25.2 16 Este 30 Este 0 -- -- 48
2020-11-22 12:00:00 23.2 14 Este 26 Este 0 -- -- 63
2020-11-22 11:00:00 23.1 16 Este 28 Este 0 -- -- 59
2020-11-22 10:00:00 22.5 15 Este 23 Este 0 -- -- 67
2020-11-22 09:00:00 21.1 10 Sudeste 19 Sudeste 0 -- -- 72
2020-11-22 08:00:00 19.6 9 Sudeste 17 Sudeste 0 -- -- 63
2020-11-22 07:00:00 19.4 10 Sudeste 16 Sudeste 0 -- -- 54
2020-11-22 06:00:00 19.8 12 Sur 16 Sudeste 0 -- -- 50
2020-11-22 05:00:00 19.7 10 Sudeste 17 Sudeste 0 -- -- 50
2020-11-22 04:00:00 20.1 12 Sudeste 18 Sudeste 0 -- -- 49
2020-11-22 03:00:00 20.5 12 Sudeste 21 Sur 0 -- -- 46
2020-11-22 02:00:00 20.6 12 Sur 20 Sur 0 -- -- 47
2020-11-22 01:00:00 20.4 12 Sur 19 Sudeste 0 -- -- 49
2020-11-22 00:00:00 20.6 12 Sudeste 20 Sudeste 0 -- -- 54
2020-11-21 23:00:00 20.9 11 Sudeste 21 Sudeste 0 -- -- 50
2020-11-21 22:00:00 21.5 12 Sudeste 22 Sur 0 -- -- 43
2020-11-21 21:00:00 22.3 16 Sudeste 23 Sudeste 0 -- -- 37
2020-11-21 20:00:00 22.4 12 Sudeste 23 Sudeste 0 -- -- 35
2020-11-21 19:00:00 22.9 14 Sudeste 29 Sudeste 0 -- -- 34
2020-11-21 18:00:00 23.8 17 Sudeste 33 Sudeste 0 -- -- 33
2020-11-21 17:00:00 25 18 Sudeste 34 Sudeste 0 -- -- 31
2020-11-21 16:00:00 25.8 21 Sudeste 36 Sudeste 0 -- -- 30
2020-11-21 15:00:00 26.3 22 Sudeste 38 Este 0 -- -- 31
2020-11-21 14:00:00 26.7 19 Sudeste 32 Sudeste 0 -- -- 32
2020-11-21 13:00:00 26.8 19 Sudeste 38 Sudeste 0 -- -- 30
2020-11-21 12:00:00 26.5 19 Sudeste 41 Sudeste 0 -- -- 32
2020-11-21 11:00:00 25.7 21 Sudeste 40 Sudeste 0 -- -- 37
2020-11-21 10:00:00 24.9 21 Sudeste 34 Sudeste 0 -- -- 36
2020-11-21 09:00:00 23.5 16 Sudeste 31 Sudeste 0 -- -- 37
2020-11-21 08:00:00 22.2 17 Sudeste 28 Sudeste 0 -- -- 39
2020-11-21 07:00:00 21.4 12 Sudeste 25 Sudeste 0 -- -- 42
2020-11-21 06:00:00 21.4 12 Sudeste 32 Sudeste 0 -- -- 44
2020-11-21 05:00:00 21.4 17 Sudeste 32 Sudeste 0 -- -- 48
2020-11-21 04:00:00 21.5 20 Sudeste 33 Sudeste 0 -- -- 47
2020-11-21 03:00:00 21.5 15 Sudeste 26 Sudeste 0 -- -- 46
2020-11-21 02:00:00 22 11 Sudeste 21 Sudeste 0 -- -- 37
2020-11-21 01:00:00 21.4 11 Sudeste 19 Sudeste 0 -- -- 36
2020-11-21 00:00:00 20.8 13 Sudeste 22 Este 0 -- -- 52
2020-11-20 23:00:00 21 10 Este 15 Este 0 -- -- 39
2020-11-20 22:00:00 20.9 8 Este 14 Este 0 -- -- 42
2020-11-20 21:00:00 22.2 8 Sur 14 Sur 0 -- -- 39
2020-11-20 20:00:00 21.3 10 Sur 15 Sur 0 -- -- 49
2020-11-20 19:00:00 20.1 5 Sudeste 8 Sudeste 0 -- -- 59
2020-11-20 18:00:00 21.8 3 Sur 7 Sur 0 -- -- 63
2020-11-20 17:00:00 24.2 2 Noroeste 10 Noroeste 0 -- -- 57
2020-11-20 16:00:00 24.7 7 Noroeste 15 Sur 0 -- -- 57
2020-11-20 15:00:00 27.3 7 Sur 28 Sudeste 0 -- -- 39
2020-11-20 14:00:00 26.9 15 Sudeste 33 Sudeste 0 -- -- 39
2020-11-20 13:00:00 26.2 20 Sudeste 40 Sudeste 0 -- -- 46
2020-11-20 12:00:00 25.1 26 Sudeste 45 Sudeste 0 -- -- 51
2020-11-20 11:00:00 24.2 24 Sudeste 42 Este 0 -- -- 58
2020-11-20 10:00:00 23.3 22 Sudeste 33 Sudeste 0 -- -- 59
2020-11-20 09:00:00 21 16 Este 24 Este 0 -- -- 79
2020-11-20 08:00:00 19.5 15 Este 23 Este 0 -- -- 85
2020-11-20 07:00:00 18.8 6 Sudeste 17 Sudeste 0 -- -- 82
2020-11-20 06:00:00 19.9 10 Sudeste 24 Este 0 -- -- 81
2020-11-20 05:00:00 20.1 13 Sudeste 25 Este 0 -- -- 83
2020-11-20 04:00:00 20.1 12 Este 19 Este 0 -- -- 83
2020-11-20 03:00:00 20.4 10 Este 19 Este 0 -- -- 82
2020-11-20 02:00:00 20.4 6 Este 13 Este 0 -- -- 81
2020-11-20 01:00:00 20.1 7 Sudeste 14 Este 0 -- -- 82
2020-11-20 00:00:00 20.6 7 Este 14 Este 0 -- -- 86
2020-11-19 23:00:00 20.5 7 Este 12 Este 0 -- -- 85
2020-11-19 22:00:00 20.1 6 Sudeste 13 Sudeste 0 -- -- 81
2020-11-19 21:00:00 20.6 7 Este 14 Este 0 -- -- 85
2020-11-19 20:00:00 20.6 6 Este 13 Este 0 -- -- 83
2020-11-19 19:00:00 20.2 5 Sudeste 14 Sudeste 0 -- -- 82
2020-11-19 18:00:00 20.8 10 Este 19 Este 0 -- -- 80
2020-11-19 17:00:00 21.6 11 Este 18 Este 0 -- -- 78
2020-11-19 16:00:00 21.9 12 Nordeste 20 Este 0 -- -- 77
2020-11-19 15:00:00 22 10 Nordeste 22 Nordeste 0 -- -- 78
2020-11-19 14:00:00 22.9 10 Nordeste 22 Este 0 -- -- 75
2020-11-19 13:00:00 22.3 12 Este 20 Nordeste 0 -- -- 76
2020-11-19 12:00:00 23.2 10 Nordeste 21 Nordeste 0 -- -- 77
2020-11-19 11:00:00 22.9 9 Nordeste 15 Nordeste 0 -- -- 75
2020-11-19 10:00:00 21.9 8 Nordeste 15 Nordeste 0 -- -- 80
2020-11-19 09:00:00 21.4 5 Nordeste 15 Nordeste 0 -- -- 81
2020-11-19 08:00:00 20.8 6 Nordeste 14 Este 0 -- -- 83
2020-11-19 07:00:00 20.6 4 Nordeste 16 Norte 0 -- -- 85
2020-11-19 06:00:00 20.5 7 Norte 17 Norte 0 -- -- 85
2020-11-19 05:00:00 20.6 7 Norte 15 Norte 0 -- -- 84
2020-11-19 04:00:00 20.6 5 Norte 15 Norte 0 -- -- 84
2020-11-19 03:00:00 20.6 4 Noroeste 14 Norte 0 -- -- 84
2020-11-19 02:00:00 20.7 5 Noroeste 12 Norte 0 -- -- 85
2020-11-19 01:00:00 20.6 6 Noroeste 14 Oeste 0 -- -- 85
2020-11-19 00:00:00 20.3 7 Oeste 13 Oeste 0 -- -- 83
2020-11-18 23:00:00 20.2 8 Oeste 14 Sudoeste 0 -- -- 82
2020-11-18 22:00:00 20.3 8 Oeste 14 Sudoeste 0 -- -- 82
2020-11-18 21:00:00 20.7 8 Oeste 14 Oeste 0 -- -- 86
2020-11-18 20:00:00 21.6 8 Noroeste 17 Noroeste 0 -- -- 86
2020-11-18 19:00:00 22 10 Noroeste 19 Noroeste 0 -- -- 85
2020-11-18 18:00:00 22.9 8 Oeste 15 Oeste 0 -- -- 71
2020-11-18 17:00:00 24.9 6 Oeste 17 Noroeste 0 -- -- 48
2020-11-18 16:00:00 24.9 9 Noroeste 16 Noroeste 0 -- -- 68
2020-11-18 15:00:00 24.7 8 Noroeste 21 Noroeste 0 -- -- 64
2020-11-18 14:00:00 25.8 8 Noroeste 12 Noroeste 0 -- -- 61
2020-11-18 13:00:00 25.8 4 Norte 12 Nordeste 0 -- -- 56
2020-11-18 12:00:00 25.7 6 Nordeste 12 Nordeste 0 -- -- 51
2020-11-18 11:00:00 26.2 6 Nordeste 10 Nordeste 0 -- -- 45
2020-11-18 10:00:00 25.9 6 Este 10 Este 0 -- -- 36
2020-11-18 09:00:00 24.6 4 Este 13 Este 0 -- -- 39
2020-11-18 08:00:00 21.8 4 Sudeste 13 Sur 0 -- -- 40
2020-11-18 07:00:00 22.6 5 Sur 15 Sur 0 -- -- 35
2020-11-18 06:00:00 24.7 10 Sur 16 Sur 0 -- -- 31
2020-11-18 05:00:00 22.6 7 Sudeste 11 Sudeste 0 -- -- 35
2020-11-18 04:00:00 19.2 3 Sudeste 10 Sudeste 0 -- -- 48
2020-11-18 03:00:00 20.8 8 Sudeste 12 Sudeste 0 -- -- 43
2020-11-18 02:00:00 23.1 5 Sur 11 Sur 0 -- -- 35
2020-11-18 01:00:00 19.5 2 Oeste 6 Sur 0 -- -- 50
2020-11-18 00:00:00 19.1 3 Oeste 5 Sudoeste 0 -- -- 62
2020-11-17 23:00:00 19.9 0 Calma 8 Oeste 0 -- -- 58
2020-11-17 22:00:00 21.3 2 Sudoeste 6 Norte 0 -- -- 46
2020-11-17 21:00:00 21.3 3 Sudoeste 8 Sudoeste 0 -- -- 46
2020-11-17 20:00:00 21.2 0 Calma 3 Sudoeste 0 -- -- 47
2020-11-17 19:00:00 22 3 Sur 5 Sur 0 -- -- 45
2020-11-17 18:00:00 24.3 3 Sudoeste 8 Sudeste 0 -- -- 41
2020-11-17 17:00:00 28.5 3 Norte 14 Este 0 -- -- 35
2020-11-17 16:00:00 27.8 10 Este 20 Este 0 -- -- 44
2020-11-17 15:00:00 28 6 Nordeste 12 Nordeste 0 -- -- 47
2020-11-17 14:00:00 27.7 6 Norte 15 Oeste 0 -- -- 44
2020-11-17 13:00:00 28.7 9 Noroeste 17 Oeste 0 -- -- 39
2020-11-17 12:00:00 27.6 6 Noroeste 12 Oeste 0 -- -- 43
2020-11-17 11:00:00 27.5 4 Nordeste 7 Nordeste 0 -- -- 43
2020-11-17 10:00:00 26.3 6 Sudeste 16 Sur 0 -- -- 38
2020-11-17 09:00:00 24.2 6 Este 14 Sudeste 0 -- -- 38
2020-11-17 08:00:00 25.5 9 Sur 17 Sudeste 0 -- -- 31
2020-11-17 07:00:00 24.6 7 Sudeste 14 Sudeste 0 -- -- 33
2020-11-17 06:00:00 24.8 11 Sudeste 16 Sudeste 0 -- -- 31
2020-11-17 05:00:00 24.3 10 Sudeste 18 Sur 0 -- -- 33
2020-11-17 04:00:00 25.6 12 Sur 18 Sur 0 -- -- 30
2020-11-17 03:00:00 22.5 10 Sur 15 Sur 0 -- -- 40
2020-11-17 02:00:00 19.6 3 Sudeste 10 Sur 0 -- -- 63
2020-11-17 01:00:00 20.2 4 Sudeste 11 Nordeste 0 -- -- 62
2020-11-17 00:00:00 19.9 3 Este 5 Sudoeste 0 -- -- 61
2020-11-16 23:00:00 19.3 3 Este 5 Nordeste 0 -- -- 64
2020-11-16 22:00:00 18.9 2 Este 4 Nordeste 0 -- -- 77
2020-11-16 21:00:00 19.1 0 Calma 3 Sur 0 -- -- 87
2020-11-16 20:00:00 19.8 0 Calma 3 Sudoeste 0 -- -- 84
2020-11-16 19:00:00 20.6 0 Calma 4 Sudoeste 0 -- -- 85
2020-11-16 18:00:00 22.3 2 Este 10 Nordeste 0 -- -- 82
2020-11-16 17:00:00 23.2 8 Este 18 Este 0 -- -- 79
2020-11-16 16:00:00 24.4 10 Nordeste 22 Este 0 -- -- 76
2020-11-16 15:00:00 23.5 10 Este 21 Este 0 -- -- 78
2020-11-16 14:00:00 23.6 8 Nordeste 16 Sudeste 0 -- -- 81
2020-11-16 13:00:00 23.9 5 Nordeste 9 Este 0 -- -- 82
2020-11-16 12:00:00 24 5 Norte 11 Noroeste 0 -- -- 79
2020-11-16 11:00:00 24.1 5 Norte 8 Nordeste 0 -- -- 72
2020-11-16 10:00:00 23.5 4 Norte 8 Norte 0 -- -- 68
2020-11-16 09:00:00 21.8 4 Oeste 12 Noroeste 0 -- -- 60
2020-11-16 08:00:00 22.7 8 Sudeste 23 Sudeste 0 -- -- 47
2020-11-16 07:00:00 20.7 14 Sudeste 17 Sur 0 -- -- 76
2020-11-16 06:00:00 20.6 12 Sudeste 15 Sur 0 -- -- 82
2020-11-16 05:00:00 20.5 9 Sudeste 15 Sudeste 0 -- -- 87
2020-11-16 04:00:00 20.3 6 Sudeste 10 Sur 0 -- -- 91
2020-11-16 03:00:00 20.4 8 Sudeste 11 Sur 0 -- -- 92
2020-11-16 02:00:00 20.1 2 Sur 8 Sur 0 -- -- 92
2020-11-16 01:00:00 20.4 6 Sudeste 9 Sudeste 0 -- -- 92
2020-11-16 00:00:00 19.4 3 Sudeste 12 Sudeste 0 -- -- 88
2020-11-15 23:00:00 18.8 5 Este 9 Sudeste 0 -- -- 81
2020-11-15 22:00:00 19.2 4 Sudeste 8 Oeste 0 -- -- 86
2020-11-15 21:00:00 20.2 4 Oeste 8 Este 0 -- -- 87
2020-11-15 20:00:00 21.5 3 Sur 12 Sur 0 -- -- 82
2020-11-15 19:00:00 21.6 6 Este 10 Este 0 -- -- 86
2020-11-15 18:00:00 22.4 4 Este 8 Este 0 -- -- 85
2020-11-15 17:00:00 23.4 4 Nordeste 11 Nordeste 0 -- -- 82
2020-11-15 16:00:00 23.3 6 Este 10 Este 0 -- -- 84
2020-11-15 15:00:00 23.7 5 Nordeste 11 Norte 0 -- -- 81
2020-11-15 14:00:00 24.3 6 Norte 11 Norte 0 -- -- 78
2020-11-15 13:00:00 24.2 5 Norte 10 Nordeste 0 -- -- 78
2020-11-15 12:00:00 23.9 5 Nordeste 10 Nordeste 0 -- -- 75
2020-11-15 11:00:00 23.8 6 Este 17 Este 0 -- -- 74
2020-11-15 10:00:00 23.4 4 Nordeste 6 Este 0 -- -- 78
2020-11-15 09:00:00 21.3 3 Sur 6 Sur 0 -- -- 82
2020-11-15 08:00:00 20.9 4 Oeste 15 Sudeste 0 -- -- 72
2020-11-15 07:00:00 21.8 11 Sudeste 16 Sur 0 -- -- 71
2020-11-15 06:00:00 19.3 5 Sudeste 12 Sudoeste 0 -- -- 81
2020-11-15 05:00:00 19.2 2 Sur 9 Sudeste 0 -- -- 85
2020-11-15 04:00:00 20.7 6 Sudeste 10 Sur 0 -- -- 73
2020-11-15 03:00:00 20.6 4 Sudeste 9 Sudeste 0 -- -- 78
2020-11-15 02:00:00 22 7 Sudeste 12 Sur 0 -- -- 74
2020-11-15 01:00:00 21.1 3 Sudoeste 11 Este 0 -- -- 75
2020-11-15 00:00:00 21.6 4 Oeste 12 Sudoeste 0 -- -- 75
2020-11-14 23:00:00 21.2 4 Sudeste 8 Sudeste 0 -- -- 65
2020-11-14 22:00:00 22.1 3 Norte 17 Sudoeste 0 -- -- 58
2020-11-14 21:00:00 22.4 3 Sudoeste 12 Sudeste 0 -- -- 59
2020-11-14 20:00:00 23 4 Sudeste 21 Sudeste 0 -- -- 64
2020-11-14 19:00:00 22.5 8 Sudeste 14 Sudeste 0 -- -- 73
2020-11-14 18:00:00 22.7 5 Sudoeste 15 Oeste 0 -- -- 77
2020-11-14 17:00:00 24.3 3 Sudeste 14 Este 0 -- -- 63
2020-11-14 16:00:00 25.8 9 Este 19 Sur 0 -- -- 53
2020-11-14 15:00:00 26.7 12 Sur 22 Sur 0 -- -- 47
2020-11-14 14:00:00 24.8 5 Norte 12 Sudeste 0 -- -- 68
2020-11-14 13:00:00 24.8 5 Noroeste 18 Oeste 0 -- -- 62
2020-11-14 12:00:00 24.2 12 Oeste 21 Oeste 0 -- -- 62
2020-11-14 11:00:00 24.2 4 Norte 24 Oeste 0 -- -- 65
2020-11-14 10:00:00 25.1 11 Sur 24 Sur 0 -- -- 38
2020-11-14 09:00:00 22.2 5 Sur 13 Sudoeste 0 -- -- 58
2020-11-14 08:00:00 21.7 10 Sudoeste 17 Sudoeste 0 -- -- 63
2020-11-14 07:00:00 21 8 Sudoeste 12 Sudoeste 0 -- -- 61
2020-11-14 06:00:00 20.9 4 Sudeste 10 Sudeste 0 -- -- 61
2020-11-14 05:00:00 20.9 3 Sudeste 11 Sur 0 -- -- 60
2020-11-14 04:00:00 22.2 8 Sudoeste 18 Sudoeste 0 -- -- 62
2020-11-14 03:00:00 21.6 10 Oeste 14 Sudoeste 0 -- -- 49
2020-11-14 02:00:00 21.5 12 Oeste 18 Sudoeste 0 -- -- 52
2020-11-14 01:00:00 21 4 Sudeste 8 Sudoeste 0 -- -- 63
2020-11-14 00:00:00 21.9 6 Sudoeste 12 Sudoeste 0 -- -- 59
2020-11-13 23:00:00 23.9 11 Sudoeste 18 Sudeste 0 -- -- 53
2020-11-13 22:00:00 25.4 12 Sur 29 Sudeste 0 -- -- 37
2020-11-13 21:00:00 22.4 3 Sudeste 13 Oeste 0 -- -- 62
2020-11-13 20:00:00 22.1 4 Sudeste 10 Oeste 0 -- -- 69
2020-11-13 19:00:00 22.3 6 Sudoeste 17 Oeste 0 -- -- 65
2020-11-13 18:00:00 22.3 6 Oeste 26 Oeste 0 -- -- 71
2020-11-13 17:00:00 22.5 11 Oeste 39 Sur 0 -- -- 82
2020-11-13 16:00:00 26 23 Sur 37 Sur 0 -- -- 48
2020-11-13 15:00:00 23.4 6 Nordeste 37 Sudeste 0 -- -- 71
2020-11-13 14:00:00 25.2 22 Sudeste 36 Sudeste 0 -- -- 49
2020-11-13 13:00:00 24.2 15 Sudeste 31 Sudeste 0 -- -- 53
2020-11-13 12:00:00 23.4 18 Sudeste 29 Sudeste 0 -- -- 59
2020-11-13 11:00:00 24.3 8 Sur 19 Sur 0 -- -- 57
2020-11-13 10:00:00 21.2 7 Sudeste 11 Sudeste 0 -- -- 78
2020-11-13 09:00:00 20.7 4 Sudeste 6 Sudeste 0 -- -- 86
2020-11-13 08:00:00 19.8 0 Calma 8 Sudoeste 0 -- -- 86
2020-11-13 07:00:00 20.7 6 Sudoeste 9 Sudoeste 0 -- -- 86
2020-11-13 06:00:00 20.9 11 Sudeste 22 Sudeste 0 -- -- 70
2020-11-13 05:00:00 20.6 8 Sudeste 14 Sudeste 0 -- -- 70
2020-11-13 04:00:00 20.6 10 Este 21 Sudeste 0 -- -- 75
2020-11-13 03:00:00 20.1 9 Sudeste 22 Este 0 -- -- 87
2020-11-13 02:00:00 20.1 10 Sudeste 18 Sudeste 0 -- -- 90
2020-11-13 01:00:00 20.3 10 Sudeste 19 Sudeste 0 -- -- 91
2020-11-13 00:00:00 20.4 14 Sudeste 23 Sudeste 0 -- -- 90
2020-11-12 23:00:00 20.4 11 Sudeste 17 Sudeste 0 -- -- 91
2020-11-12 22:00:00 20.1 8 Sudeste 12 Este 0 -- -- 91
2020-11-12 21:00:00 20.4 5 Sudeste 9 Este 0 -- -- 90
2020-11-12 20:00:00 20.6 5 Sudeste 7 Sudeste 0 -- -- 89
2020-11-12 19:00:00 21 0 Calma 7 Nordeste 0 -- -- 88
2020-11-12 18:00:00 21.2 4 Este 9 Nordeste 0 -- -- 87
2020-11-12 17:00:00 21.9 6 Nordeste 12 Nordeste 0 -- -- 84
2020-11-12 16:00:00 22.1 8 Nordeste 13 Este 0 -- -- 83
2020-11-12 15:00:00 22.6 9 Nordeste 17 Nordeste 0 -- -- 78
2020-11-12 14:00:00 23.2 12 Nordeste 21 Este 0 -- -- 77
2020-11-12 13:00:00 22.5 9 Este 20 Este 0 -- -- 80
2020-11-12 12:00:00 22.7 10 Este 22 Este 0 -- -- 78
2020-11-12 11:00:00 22.1 10 Este 21 Este 0 -- -- 79
2020-11-12 10:00:00 21.4 8 Sudeste 13 Sudeste 0 -- -- 81
2020-11-12 09:00:00 20.2 5 Sudeste 14 Sur 0 -- -- 84
2020-11-12 08:00:00 19.4 8 Sudeste 14 Sudeste 0 -- -- 85
2020-11-12 07:00:00 19.3 10 Sur 14 Sur 0 -- -- 84
2020-11-12 06:00:00 19.4 8 Sur 14 Sudeste 0 -- -- 85
2020-11-12 05:00:00 19.2 8 Sudeste 12 Sudeste 0 -- -- 85
2020-11-12 04:00:00 19.3 6 Sudeste 14 Sudeste 0 -- -- 84
2020-11-12 03:00:00 19.4 5 Sudeste 15 Oeste 0 -- -- 84
2020-11-12 02:00:00 19.4 2 Sudeste 9 Sudeste 0 -- -- 84
2020-11-12 01:00:00 19.6 6 Sudeste 14 Sudeste 0 -- -- 83
2020-11-12 00:00:00 19.8 2 Nordeste 10 Norte 0 -- -- 81
2020-11-11 23:00:00 20 5 Norte 13 Noroeste 0 -- -- 81
2020-11-11 22:00:00 20.3 4 Noroeste 12 Norte 0 -- -- 81
2020-11-11 21:00:00 20.3 5 Norte 13 Norte 0 -- -- 81
2020-11-11 20:00:00 20.4 6 Norte 12 Nordeste 0 -- -- 80
2020-11-11 19:00:00 20.5 5 Norte 11 Norte 0 -- -- 81
2020-11-11 18:00:00 20.8 6 Norte 10 Este 0 -- -- 80
2020-11-11 17:00:00 21 4 Nordeste 10 Norte 0 -- -- 79
2020-11-11 16:00:00 21.2 6 Norte 13 Norte 0 -- -- 79
2020-11-11 15:00:00 21.4 8 Nordeste 14 Nordeste 0 -- -- 78
2020-11-11 14:00:00 21.9 10 Nordeste 16 Nordeste 0 -- -- 76
2020-11-11 13:00:00 21.9 9 Nordeste 15 Nordeste 0 -- -- 74
2020-11-11 12:00:00 21.8 8 Nordeste 13 Nordeste 0 -- -- 75
2020-11-11 11:00:00 21.7 7 Nordeste 12 Nordeste 0 -- -- 75
2020-11-11 10:00:00 21.4 9 Este 15 Este 0 -- -- 78
2020-11-11 09:00:00 19.8 3 Sudeste 6 Sudeste 0 -- -- 82
2020-11-11 08:00:00 19.3 3 Sur 12 Sudeste 0 -- -- 83
2020-11-11 07:00:00 19 8 Sudeste 14 Sudeste 0 -- -- 84
2020-11-11 06:00:00 19.1 6 Sudeste 11 Sudeste 0 -- -- 84
2020-11-11 05:00:00 19.3 7 Sudeste 11 Sudeste 0 -- -- 82
2020-11-11 04:00:00 19.8 5 Este 13 Nordeste 0 -- -- 81
2020-11-11 03:00:00 19.9 7 Este 14 Este 0 -- -- 81
2020-11-11 02:00:00 20 6 Este 14 Este 0 -- -- 82
2020-11-11 01:00:00 20 7 Este 13 Este 0 -- -- 83
2020-11-11 00:00:00 19.7 5 Este 13 Sudeste 0 -- -- 81
2020-11-10 23:00:00 19.7 8 Sudeste 12 Sudeste 0 -- -- 80
2020-11-10 22:00:00 19.7 5 Sudeste 12 Sudeste 0 -- -- 80
2020-11-10 21:00:00 20 5 Sudeste 15 Sudeste 0 -- -- 78
2020-11-10 20:00:00 20.3 8 Este 16 Este 0 -- -- 78
2020-11-10 19:00:00 20.2 9 Este 17 Este 0 -- -- 77
2020-11-10 18:00:00 20.4 10 Este 17 Este 0 -- -- 73
2020-11-10 17:00:00 21.6 10 Este 21 Este 0 -- -- 70
2020-11-10 16:00:00 22 14 Este 25 Este 0 -- -- 68
2020-11-10 15:00:00 22.2 15 Este 30 Este 0 -- -- 66
2020-11-10 14:00:00 22.2 17 Este 29 Este 0 -- -- 64
2020-11-10 13:00:00 22.3 16 Este 26 Este 0 -- -- 65
2020-11-10 12:00:00 22.2 15 Este 24 Este 0 -- -- 66
2020-11-10 11:00:00 21.5 15 Este 30 Este 0 -- -- 68
2020-11-10 10:00:00 21.1 17 Este 25 Este 0 -- -- 72
2020-11-10 09:00:00 19.8 11 Este 21 Este 0 -- -- 81
2020-11-10 08:00:00 19.6 9 Este 18 Este 0 -- -- 77
2020-11-10 07:00:00 19.3 10 Este 19 Este 0.2 -- -- 82
2020-11-10 06:00:00 19.4 11 Sudeste 23 Este 0 -- -- 84
2020-11-10 05:00:00 19.9 13 Este 28 Este 0 -- -- 78
2020-11-10 04:00:00 19.7 15 Este 24 Este 0 -- -- 80
2020-11-10 03:00:00 19.6 10 Sudeste 29 Este 0 -- -- 83
2020-11-10 02:00:00 19.9 13 Este 22 Este 0 -- -- 83
2020-11-10 01:00:00 20.1 10 Este 23 Este 0 -- -- 82
2020-11-10 00:00:00 20.2 12 Este 20 Este 0 -- -- 83
2020-11-09 23:00:00 20.2 12 Este 21 Este 0 -- -- 82
2020-11-09 22:00:00 20.3 12 Este 22 Este 0 -- -- 81
2020-11-09 21:00:00 20.4 13 Este 22 Este 0 -- -- 80
2020-11-09 20:00:00 20.3 9 Este 17 Nordeste 0 -- -- 81
2020-11-09 19:00:00 20.3 8 Nordeste 17 Este 0 -- -- 82
2020-11-09 18:00:00 20.7 6 Nordeste 14 Este 0 -- -- 79
2020-11-09 17:00:00 21.8 8 Nordeste 17 Este 0 -- -- 73
2020-11-09 16:00:00 22.5 9 Nordeste 16 Nordeste 0 -- -- 71
2020-11-09 15:00:00 22.9 8 Nordeste 16 Nordeste 0 -- -- 69
2020-11-09 14:00:00 22.7 9 Nordeste 17 Este 0 -- -- 70
2020-11-09 13:00:00 22.8 9 Nordeste 15 Este 0 -- -- 70
2020-11-09 12:00:00 22.7 8 Nordeste 18 Nordeste 0 -- -- 69
2020-11-09 11:00:00 20.8 6 Nordeste 14 Nordeste 0 -- -- 77
2020-11-09 10:00:00 21 9 Este 14 Este 0 -- -- 75
2020-11-09 09:00:00 19.9 6 Sur 12 Sur 0 -- -- 77
2020-11-09 08:00:00 18.7 6 Sudeste 12 Sudeste 0 -- -- 81
2020-11-09 07:00:00 18.1 4 Sudeste 9 Sur 0 -- -- 82
2020-11-09 06:00:00 17.8 4 Sur 9 Sudeste 0 -- -- 83
2020-11-09 05:00:00 17.8 4 Sudeste 10 Oeste 0 -- -- 84
2020-11-09 04:00:00 17.2 2 Sur 5 Oeste 0 -- -- 87
2020-11-09 03:00:00 17.8 3 Este 6 Sudeste 0 -- -- 86
2020-11-09 02:00:00 17 3 Sudoeste 5 Sudoeste 0 -- -- 89
2020-11-09 01:00:00 17.1 3 Sudoeste 5 Oeste 0 -- -- 87
2020-11-09 00:00:00 18 2 Oeste 5 Sudoeste 0 -- -- 86
2020-11-08 23:00:00 17.7 3 Oeste 8 Sudoeste 0 -- -- 87
2020-11-08 22:00:00 17.3 2 Sudoeste 4 Oeste 0 -- -- 86
2020-11-08 21:00:00 18.2 4 Oeste 5 Sudoeste 0 -- -- 85
2020-11-08 20:00:00 19.3 0 Calma 9 Norte 0 -- -- 80
2020-11-08 19:00:00 20.1 4 Norte 14 Norte 0 -- -- 76
2020-11-08 18:00:00 20.7 6 Norte 14 Norte 0 -- -- 78
2020-11-08 17:00:00 21.1 5 Norte 11 Norte 0 -- -- 77
2020-11-08 16:00:00 21.2 6 Norte 12 Norte 0 -- -- 75
2020-11-08 15:00:00 21.1 8 Norte 12 Norte 0 -- -- 75
2020-11-08 14:00:00 21.3 7 Norte 16 Norte 0 -- -- 75
2020-11-08 13:00:00 21.7 7 Nordeste 13 Nordeste 0 -- -- 75
2020-11-08 12:00:00 21.8 5 Norte 12 Noroeste 0 -- -- 78
2020-11-08 11:00:00 21.5 8 Noroeste 14 Norte 0 -- -- 80
2020-11-08 10:00:00 21.1 4 Este 12 Nordeste 0 -- -- 80
2020-11-08 09:00:00 19.6 2 Este 3 Sudeste 0 -- -- 85
2020-11-08 08:00:00 16.9 4 Sudoeste 6 Sudoeste 0 -- -- 94
2020-11-08 07:00:00 16 2 Sudoeste 6 Sudoeste 0 -- -- 92
2020-11-08 06:00:00 16 2 Sur 7 Sudoeste 0 -- -- 91
2020-11-08 05:00:00 16.2 0 Calma 6 Sudoeste 0 -- -- 91
2020-11-08 04:00:00 17.2 6 Sudoeste 8 Sudoeste 0 -- -- 89
2020-11-08 03:00:00 16.7 4 Sudoeste 6 Sur 0 -- -- 89
2020-11-08 02:00:00 18.1 4 Sur 8 Sur 0 -- -- 86
2020-11-08 01:00:00 18.6 5 Sur 12 Sur 0 -- -- 83
2020-11-08 00:00:00 19 7 Sur 10 Sur 0 -- -- 81
2020-11-07 23:00:00 19.5 6 Sudeste 10 Sudeste 0 -- -- 82
2020-11-07 22:00:00 19.9 6 Sur 12 Sur 0 -- -- 81
2020-11-07 21:00:00 20 8 Sur 12 Sur 0 -- -- 84
2020-11-07 20:00:00 19.6 5 Sudeste 9 Sudeste 0 -- -- 85
2020-11-07 19:00:00 20.1 4 Sudeste 9 Sudeste 0 -- -- 82
2020-11-07 18:00:00 20.9 6 Sudeste 13 Sudeste 0 -- -- 79
2020-11-07 17:00:00 21.6 8 Este 19 Este 0 -- -- 77
2020-11-07 16:00:00 22 10 Este 21 Este 0 -- -- 77
2020-11-07 15:00:00 22.5 11 Este 21 Este 0 -- -- 73
2020-11-07 14:00:00 22.5 10 Este 21 Este 0 -- -- 72
2020-11-07 13:00:00 21.9 14 Este 27 Este 0 -- -- 70
2020-11-07 12:00:00 22.3 14 Este 26 Este 0 -- -- 70
2020-11-07 11:00:00 23.4 13 Este 24 Este 0 -- -- 68
2020-11-07 10:00:00 22.6 13 Sudeste 22 Sudeste 0 -- -- 62
2020-11-07 09:00:00 21 9 Sudeste 19 Sur 0 -- -- 69
2020-11-07 08:00:00 19.5 13 Sur 18 Sur 0 -- -- 70
2020-11-07 07:00:00 18.9 9 Sur 15 Sur 0 -- -- 75
2020-11-07 06:00:00 18.9 9 Sur 13 Sur 0 -- -- 73
2020-11-07 05:00:00 19 7 Sur 12 Sur 0 -- -- 75
2020-11-07 04:00:00 18.6 6 Sur 10 Sur 0 -- -- 76
2020-11-07 03:00:00 18.7 5 Sur 10 Sur 0 -- -- 78
2020-11-07 02:00:00 18.9 4 Sur 8 Sur 0 -- -- 78
2020-11-07 01:00:00 19.6 6 Sur 8 Sur 0 -- -- 76
2020-11-07 00:00:00 19.7 6 Sur 8 Sur 0 -- -- 76
2020-11-06 23:00:00 20.1 4 Sur 7 Sudoeste 0 -- -- 74
2020-11-06 22:00:00 20.8 2 Nordeste 8 Norte 0 -- -- 72
2020-11-06 21:00:00 21.1 2 Noroeste 10 Norte 0 -- -- 72
2020-11-06 20:00:00 21 4 Noroeste 16 Noroeste 0 -- -- 72
2020-11-06 19:00:00 21 7 Noroeste 17 Noroeste 0 -- -- 72
2020-11-06 18:00:00 21 7 Noroeste 31 Noroeste 0 -- -- 74
2020-11-06 17:00:00 23.5 14 Noroeste 33 Noroeste 0 -- -- 67
2020-11-06 16:00:00 25.1 17 Oeste 35 Oeste 0 -- -- 52
2020-11-06 15:00:00 25.7 16 Noroeste 36 Noroeste 0 -- -- 50
2020-11-06 14:00:00 25.4 21 Noroeste 37 Noroeste 0 -- -- 51
2020-11-06 13:00:00 24 15 Oeste 33 Noroeste 0 -- -- 59
2020-11-06 12:00:00 23.6 18 Oeste 35 Oeste 0 -- -- 62
2020-11-06 11:00:00 24.4 12 Noroeste 31 Sudoeste 0 -- -- 61
2020-11-06 10:00:00 23.6 11 Noroeste 17 Noroeste 0 -- -- 59
2020-11-06 09:00:00 22.5 7 Sudoeste 21 Oeste 0 -- -- 59
2020-11-06 08:00:00 20 9 Oeste 22 Oeste 0 -- -- 71
2020-11-06 07:00:00 17 2 Sudoeste 6 Sudoeste 0 -- -- 76
2020-11-06 06:00:00 17.4 0 Calma 19 Sudoeste 0 -- -- 70
2020-11-06 05:00:00 18.7 6 Sudoeste 14 Sudoeste 0 -- -- 63
2020-11-06 04:00:00 19.3 7 Sudoeste 16 Sudoeste 0 -- -- 59
2020-11-06 03:00:00 18.8 8 Sudoeste 19 Sudoeste 0 -- -- 62
2020-11-06 02:00:00 19.3 9 Sudoeste 18 Sudoeste 0 -- -- 58
2020-11-06 01:00:00 18.9 11 Sur 20 Sudoeste 0 -- -- 63
2020-11-06 00:00:00 17.4 5 Sudoeste 9 Sudoeste 0 -- -- 87
2020-11-05 23:00:00 18 2 Sur 8 Sudoeste 0 -- -- 83
2020-11-05 22:00:00 19.3 5 Sur 12 Sur 0 -- -- 79
2020-11-05 21:00:00 19.6 9 Sudoeste 14 Sudoeste 0 -- -- 75
2020-11-05 20:00:00 19.7 7 Sur 13 Sudoeste 0 -- -- 72
2020-11-05 19:00:00 20.1 8 Sur 15 Sur 0 -- -- 70
2020-11-05 18:00:00 20.9 4 Sudoeste 14 Sur 0 -- -- 67
2020-11-05 17:00:00 21.7 8 Este 17 Nordeste 0 -- -- 69
2020-11-05 16:00:00 21.4 9 Nordeste 21 Este 0 -- -- 75
2020-11-05 15:00:00 21.9 13 Este 26 Este 0 -- -- 69
2020-11-05 14:00:00 22.3 12 Este 21 Este 0 -- -- 65
2020-11-05 13:00:00 21 11 Este 17 Este 0 -- -- 68
2020-11-05 12:00:00 21.5 5 Nordeste 11 Norte 0 -- -- 67
2020-11-05 11:00:00 21.6 7 Norte 11 Norte 0 -- -- 65
2020-11-05 10:00:00 20.9 4 Norte 10 Sudoeste 0 -- -- 67
2020-11-05 09:00:00 20.1 8 Sudoeste 14 Sudoeste 0 -- -- 70
2020-11-05 08:00:00 18.6 10 Sudoeste 18 Sudoeste 0 -- -- 70
2020-11-05 07:00:00 18 9 Sudoeste 16 Sudoeste 0.2 -- -- 73
2020-11-05 06:00:00 18 10 Sudoeste 15 Sudoeste 0 -- -- 78
2020-11-05 05:00:00 18.4 8 Sudoeste 14 Sudoeste 0 -- -- 79
2020-11-05 04:00:00 18.3 6 Sudoeste 9 Oeste 0 -- -- 80
2020-11-05 03:00:00 18.6 6 Oeste 13 Noroeste 0 -- -- 78
2020-11-05 02:00:00 19.2 6 Noroeste 13 Norte 0 -- -- 75
2020-11-05 01:00:00 18.6 5 Noroeste 15 Norte 0 -- -- 82
2020-11-05 00:00:00 19 4 Noroeste 19 Norte 0.2 -- -- 78